ESTA

Details ICAO ESTA (AGH)
Name Angelholm
Region Sweden
Timezone Europe/Stockholm (UTC+2.0)
Plans Departing 23
Arriving 31
Stats Elevation 68 ft / 21 m (AMSL)
Location 56.291492° 12.854977°
Runways 1
Magnetic Variation 3.903° E
Sunrise 2018-05-21 02:45:16 UTC / 2018-05-21 04:45:16 Local
Sunset 2018-05-21 19:27:55 UTC / 2018-05-21 21:27:55 Local
Advertisement - Login to hide

Runways

ID Width Length Bearing (true) Bearing (mag) Surface Threshold Offset Overrun Length
14 148 ft / 45 m 6,339 ft / 1,932 m 136.36° 132.46° Asphalt 0 ft / 0 m 0 ft / 0 m
32 148 ft / 45 m 6,339 ft / 1,932 m 316.38° 312.48° Asphalt 0 ft / 0 m 0 ft / 0 m

Approach Navaids

Runway Type Ident Frequency Range Bearing (true) Bearing (mag) Slope Elevation
14 Localiser DB 111.30 MHz 18 nm / 33 km 136.40° 132.50° - 38 ft / 12 m (AMSL)
14 Glidescope DB 111.30 MHz 10 nm / 19 km 136.37° 132.47° 3.00° 68 ft / 21 m (AMSL)

Map

Weather


0- 5 10 15 20 25 30 35+ Temperature / ° C

Clouds and Precipitation
Forecast for 2018-05-21 18:00 UTC. Updated 2 hours ago

Ground ~20,000 ft ~40,000 ft Winds

METAR

ESTA 211650Z 11010KT CAVOK 20/04 Q1023

TAF

Not found

Frequencies

Tower 127.10 MHz TWR
Departure 124.85 MHz SWEDEN
Approach 132.45 MHz TWR
Warning: Do not use this data for real-world aviation or navigation. No guarantee of current accuracy is given.